This is the latest recevied weather packets stored in our database for station/object KQ4NAL. If no packets are shown the sender has not sent any weather packets the latest 10 day(s).
| Time | Temp. | Humidity | Pressure | Rain* | Wind** | Luminosity | Snow |
|---|---|---|---|---|---|---|---|
| 1777590272 | 15° C | 43% | 1016 hPa | 0 mm | - | 137 W/m² | - |
| 1777589970 | 15.56° C | 43% | 1015.9 hPa | 0 mm | - | 140 W/m² | - |
| 1777589665 | 15.56° C | 42% | 1016.1 hPa | 0 mm | - | 65 W/m² | - |
| 1777589363 | 15° C | 43% | 1016.2 hPa | 0 mm | - | 182 W/m² | - |
| 1777589060 | 15° C | 42% | 1016.3 hPa | 0 mm | - | 186 W/m² | - |
| 1777588756 | 15.56° C | 41% | 1016.1 hPa | 0 mm | - | 219 W/m² | - |
| 1777588452 | 15.56° C | 43% | 1016.3 hPa | 0 mm | - | 237 W/m² | - |
| 1777588146 | 15.56° C | 40% | 1016.3 hPa | 0 mm | - | 245 W/m² | - |
| 1777587844 | 15.56° C | 44% | 1016.2 hPa | 0 mm | - | 258 W/m² | - |
| 1777587543 | 15.56° C | 42% | 1016.2 hPa | 0 mm | - | 275 W/m² | - |
| 1777587239 | 15.56° C | 43% | 1016.2 hPa | 0 mm | - | 291 W/m² | - |
| 1777586935 | 15.56° C | 41% | 1016.2 hPa | 0 mm | - | 303 W/m² | - |
| 1777586630 | 15.56° C | 43% | 1016.4 hPa | 0 mm | - | 332 W/m² | - |
| 1777586326 | 15.56° C | 42% | 1016.2 hPa | 0 mm | - | 343 W/m² | - |
| 1777586025 | 16.11° C | 40% | 1016.2 hPa | 0 mm | - | 396 W/m² | - |
| 1777585725 | 15.56° C | 42% | 1016.4 hPa | 0 mm | - | 276 W/m² | - |
| 1777585424 | 15° C | 43% | 1016.5 hPa | 0 mm | - | 367 W/m² | - |
| 1777585120 | 14.44° C | 44% | 1016.6 hPa | 0 mm | - | 144 W/m² | - |
| 1777584816 | 15° C | 42% | 1016.6 hPa | 0 mm | - | 114 W/m² | - |
| 1777584514 | 14.44° C | 40% | 1016.5 hPa | 0 mm | - | 285 W/m² | - |
| 1777584210 | 16.67° C | 38% | 1016.5 hPa | 0 mm | - | 156 W/m² | - |
| 1777583910 | 16.11° C | 39% | 1016.6 hPa | 0 mm | - | 491 W/m² | - |
| 1777583606 | 15.56° C | 40% | 1016.6 hPa | 0 mm | - | 259 W/m² | - |
| 1777583304 | 15° C | 43% | 1016.4 hPa | 0 mm | - | 539 W/m² | - |
| 1777582999 | 15° C | 46% | 1016.5 hPa | 0 mm | - | 110 W/m² | - |
* Rain latest hour (hover to see other rain measurements)
** Current wind speed in m/s (hover to see current wind gust speed)